TimeAKDT,TemperatureF,Dew PointF,Humidity,Sea Level PressureIn,VisibilityMPH,Wind Direction,Wind SpeedMPH,Gust SpeedMPH,PrecipitationIn,Events,Conditions,WindDirDegrees,DateUTC
12:16 AM,8.6,1.4,73,29.32,10.0,North,3.5,-,N/A,,Overcast,360,2013-10-31 08:16:00
12:36 AM,8.6,1.4,73,29.32,10.0,North,3.5,-,N/A,,Overcast,360,2013-10-31 08:36:00
12:56 AM,8.6,1.4,73,29.32,10.0,Calm,Calm,-,N/A,,Overcast,0,2013-10-31 08:56:00
1:16 AM,8.6,1.4,73,29.33,10.0,NNW,3.5,-,N/A,,Overcast,340,2013-10-31 09:16:00
1:36 AM,8.6,1.4,73,29.33,10.0,Calm,Calm,-,N/A,,Overcast,0,2013-10-31 09:36:00
1:56 AM,6.8,-0.4,72,29.33,10.0,Calm,Calm,-,N/A,,Overcast,0,2013-10-31 09:56:00
2:16 AM,8.6,1.4,73,29.33,10.0,Calm,Calm,-,N/A,,Overcast,0,2013-10-31 10:16:00
2:36 AM,8.6,1.4,73,29.33,10.0,Calm,Calm,-,N/A,,Overcast,0,2013-10-31 10:36:00
2:56 AM,8.6,1.4,73,29.34,10.0,Calm,Calm,-,N/A,,Overcast,0,2013-10-31 10:56:00
3:16 AM,8.6,1.4,73,29.34,10.0,Calm,Calm,-,N/A,,Overcast,0,2013-10-31 11:16:00
3:36 AM,6.8,1.4,79,29.34,10.0,Calm,Calm,-,N/A,,Overcast,0,2013-10-31 11:36:00
3:56 AM,8.6,1.4,73,29.34,10.0,Calm,Calm,-,N/A,,Overcast,0,2013-10-31 11:56:00
4:16 AM,8.6,3.2,79,29.34,10.0,Calm,Calm,-,N/A,,Overcast,0,2013-10-31 12:16:00
4:36 AM,10.4,3.2,73,29.34,10.0,Calm,Calm,-,N/A,,Overcast,0,2013-10-31 12:36:00
4:56 AM,10.4,3.2,73,29.35,10.0,Calm,Calm,-,N/A,,Overcast,0,2013-10-31 12:56:00
5:16 AM,10.4,3.2,73,29.35,10.0,Calm,Calm,-,N/A,,Overcast,0,2013-10-31 13:16:00
5:36 AM,10.4,3.2,73,29.35,10.0,Calm,Calm,-,N/A,,Overcast,0,2013-10-31 13:36:00
5:56 AM,10.4,3.2,73,29.36,10.0,Calm,Calm,-,N/A,,Overcast,0,2013-10-31 13:56:00
6:16 AM,10.4,3.2,73,29.36,10.0,Calm,Calm,-,N/A,,Overcast,0,2013-10-31 14:16:00
6:36 AM,10.4,3.2,73,29.36,10.0,Calm,Calm,-,N/A,,Overcast,0,2013-10-31 14:36:00
6:56 AM,10.4,3.2,73,29.37,10.0,North,3.5,-,N/A,,Overcast,10,2013-10-31 14:56:00
7:16 AM,10.4,3.2,73,29.37,10.0,Calm,Calm,-,N/A,,Overcast,0,2013-10-31 15:16:00
7:36 AM,10.4,5.0,79,29.38,10.0,Calm,Calm,-,N/A,,Overcast,0,2013-10-31 15:36:00
7:56 AM,10.4,5.0,79,29.38,10.0,Calm,Calm,-,N/A,,Overcast,0,2013-10-31 15:56:00
8:16 AM,10.4,5.0,79,29.38,9.0,Calm,Calm,-,N/A,,Overcast,0,2013-10-31 16:16:00
8:36 AM,10.4,5.0,79,29.39,5.0,Calm,Calm,-,N/A,,Overcast,0,2013-10-31 16:36:00
8:56 AM,12.2,5.0,73,29.39,2.5,Calm,Calm,-,N/A,,Overcast,0,2013-10-31 16:56:00
9:16 AM,12.2,5.0,73,29.40,1.8,Calm,Calm,-,N/A,,Overcast,0,2013-10-31 17:16:00
9:36 AM,12.2,5.0,73,29.40,1.2,NNE,3.5,-,N/A,,Overcast,30,2013-10-31 17:36:00
9:56 AM,12.2,5.0,73,29.40,0.8,NNE,3.5,-,N/A,,Overcast,20,2013-10-31 17:56:00
10:16 AM,10.4,3.2,73,29.41,0.5,North,3.5,-,N/A,,Overcast,10,2013-10-31 18:16:00
10:36 AM,10.4,3.2,73,29.41,0.5,Calm,Calm,-,N/A,,Overcast,0,2013-10-31 18:36:00
10:56 AM,10.4,3.2,73,29.42,0.2,North,3.5,-,N/A,,Overcast,360,2013-10-31 18:56:00
11:16 AM,10.4,3.2,73,29.42,0.5,North,4.6,-,N/A,,Overcast,10,2013-10-31 19:16:00
11:36 AM,8.6,1.4,73,29.43,0.2,Calm,Calm,-,N/A,,Overcast,0,2013-10-31 19:36:00
11:56 AM,8.6,1.4,73,29.43,0.8,Calm,Calm,-,N/A,,Overcast,0,2013-10-31 19:56:00
12:16 PM,6.8,-0.4,72,29.43,1.2,Calm,Calm,-,N/A,,Overcast,0,2013-10-31 20:16:00
12:36 PM,8.6,1.4,73,29.44,0.8,Calm,Calm,-,N/A,,Overcast,0,2013-10-31 20:36:00
12:56 PM,8.6,1.4,73,29.44,1.0,North,4.6,-,N/A,,Overcast,350,2013-10-31 20:56:00
1:16 PM,8.6,1.4,73,29.45,4.0,North,3.5,-,N/A,,Overcast,10,2013-10-31 21:16:00
1:36 PM,8.6,1.4,73,29.45,0.8,Calm,Calm,-,N/A,,Overcast,0,2013-10-31 21:36:00
1:56 PM,8.6,1.4,73,29.46,0.8,Calm,Calm,-,N/A,,Overcast,0,2013-10-31 21:56:00
2:16 PM,8.6,1.4,73,29.47,2.5,Calm,Calm,-,N/A,,Overcast,0,2013-10-31 22:16:00
2:36 PM,8.6,1.4,73,29.47,5.0,Calm,Calm,-,N/A,,Overcast,0,2013-10-31 22:36:00
2:56 PM,8.6,3.2,79,29.47,2.5,Calm,Calm,-,N/A,,Overcast,0,2013-10-31 22:56:00
3:16 PM,10.4,3.2,73,29.48,4.0,Calm,Calm,-,N/A,,Overcast,0,2013-10-31 23:16:00
3:36 PM,10.4,3.2,73,29.48,2.0,North,3.5,-,N/A,,Overcast,360,2013-10-31 23:36:00
3:56 PM,10.4,3.2,73,29.49,2.5,North,3.5,-,N/A,,Overcast,360,2013-10-31 23:56:00
4:16 PM,10.4,3.2,73,29.49,3.0,North,4.6,-,N/A,,Overcast,360,2013-11-01 00:16:00
4:36 PM,10.4,3.2,73,29.49,3.0,North,3.5,-,N/A,,Overcast,350,2013-11-01 00:36:00
4:56 PM,10.4,3.2,73,29.50,3.0,NNW,3.5,-,N/A,,Overcast,340,2013-11-01 00:56:00
5:16 PM,10.4,3.2,73,29.50,1.0,NNW,4.6,-,N/A,,Overcast,340,2013-11-01 01:16:00
5:36 PM,10.4,3.2,73,29.50,1.2,North,5.8,-,N/A,,Overcast,360,2013-11-01 01:36:00
5:56 PM,10.4,3.2,73,29.51,2.0,North,5.8,-,N/A,,Overcast,10,2013-11-01 01:56:00
6:16 PM,10.4,3.2,73,29.51,5.0,NNE,5.8,-,N/A,,Overcast,20,2013-11-01 02:16:00
6:36 PM,10.4,3.2,73,29.52,5.0,North,6.9,-,N/A,,Overcast,10,2013-11-01 02:36:00
6:56 PM,10.4,3.2,73,29.52,10.0,NNE,5.8,-,N/A,,Overcast,20,2013-11-01 02:56:00
7:16 PM,10.4,3.2,73,29.52,10.0,NNE,5.8,-,N/A,,Overcast,20,2013-11-01 03:16:00
7:36 PM,8.6,3.2,79,29.53,10.0,North,3.5,-,N/A,,Overcast,10,2013-11-01 03:36:00
7:56 PM,8.6,3.2,79,29.54,9.0,North,3.5,-,N/A,,Overcast,360,2013-11-01 03:56:00
8:16 PM,10.4,3.2,73,29.54,8.0,NNE,5.8,-,N/A,,Overcast,20,2013-11-01 04:16:00
8:36 PM,10.4,3.2,73,29.55,10.0,North,3.5,-,N/A,,Overcast,10,2013-11-01 04:36:00
8:56 PM,10.4,3.2,73,29.55,10.0,North,3.5,-,N/A,,Overcast,360,2013-11-01 04:56:00
9:16 PM,10.4,3.2,73,29.56,10.0,North,3.5,-,N/A,,Overcast,360,2013-11-01 05:16:00
9:36 PM,8.6,3.2,79,29.56,10.0,North,3.5,-,N/A,,Overcast,10,2013-11-01 05:36:00
9:56 PM,8.6,1.4,73,29.57,9.0,NNW,3.5,-,N/A,,Overcast,340,2013-11-01 05:56:00
10:16 PM,8.6,3.2,79,29.57,8.0,Calm,Calm,-,N/A,,Overcast,0,2013-11-01 06:16:00
10:36 PM,10.4,3.2,73,29.58,9.0,Calm,Calm,-,N/A,,Overcast,0,2013-11-01 06:36:00
10:56 PM,10.4,3.2,73,29.59,10.0,Calm,Calm,-,N/A,,Overcast,0,2013-11-01 06:56:00
11:16 PM,8.6,1.4,73,29.59,10.0,Calm,Calm,-,N/A,,Overcast,0,2013-11-01 07:16:00
11:36 PM,8.6,1.4,73,29.60,10.0,Calm,Calm,-,N/A,,Overcast,0,2013-11-01 07:36:00
11:56 PM,8.6,1.4,73,29.61,10.0,Calm,Calm,-,N/A,,Overcast,0,2013-11-01 07:56:00